Lid_Strength_Index
1 1 1 1 2 2 2 3 3 3 2 2 2 2 2 1 1 1 4 3 2 -1 1 4 4 4 4 4 2 2 7 9 8 8 7 5 6 4 4 5 5 4 3 2 1
1 1 1 1 2 2 2 2 3 3 3 2 2 2 2 2 2 2 0 1 -0 -0 5 6 5 4 5 5 4 5 7 7 5 5 6 5 5 5 6 6 6 4 2 1 2
1 1 1 2 1 2 2 2 2 3 2 2 2 2 2 1 3 4 -1 -1 -0 -1 3 5 4 5 6 5 5 5 7 5 5 4 4 5 5 4 5 6 6 5 4 3 3
2 1 2 2 2 2 2 2 2 2 3 3 2 2 2 1 7 2 -1 -1 -2 1 2 4 5 6 7 7 5 7 5 4 4 4 5 5 4 5 5 5 5 4 4 3 3
2 2 2 2 2 2 2 2 3 2 3 3 3 2 2 5 4 -0 -2 -1 1 2 4 5 6 6 7 7 6 7 6 6 5 4 4 4 5 5 5 4 6 5 5 4 4
3 2 2 2 3 3 3 2 2 3 3 3 2 2 3 8 2 1 1 1 2 3 4 4 5 5 6 7 7 6 6 6 5 5 5 6 6 6 5 5 6 5 4 4 4
2 3 3 3 3 3 3 3 3 3 3 2 2 1 5 7 2 0 1 2 2 3 4 4 4 6 6 7 6 6 8 6 6 5 6 5 8 8 5 6 6 7 6 4 3
3 3 3 3 3 3 3 3 3 2 2 2 1 2 6 4 1 1 1 2 2 2 3 3 3 5 6 6 7 8 8 10 7 7 6 7 9 7 6 6 7 7 8 6 5
3 4 4 4 3 3 3 3 2 2 2 1 1 2 6 1 3 3 2 4 4 3 3 3 4 5 6 7 8 8 11 10 9 7 7 7 9 6 6 6 7 7 7 7 6
4 4 4 4 3 3 3 3 1 1 1 1 2 4 4 6 3 3 3 4 5 5 5 5 5 7 7 8 11 10 10 9 10 8 7 8 8 7 6 6 7 6 7 7 7
4 4 4 4 3 3 2 2 3 4 3 6 6 6 5 3 2 4 4 5 5 6 7 6 8 9 8 8 8 9 9 9 8 7 8 8 8 7 6 6 7 6 6 6 6
5 4 4 4 3 3 2 3 4 3 6 4 5 5 4 3 6 5 4 7 7 8 7 8 9 7 7 8 9 9 10 9 8 7 8 8 8 7 6 6 6 6 5 5 5
5 5 4 4 3 3 2 3 1 2 5 6 4 5 4 3 6 5 4 5 7 8 8 9 8 7 8 8 9 9 9 9 10 8 8 8 9 7 6 6 5 5 5 4 5
5 4 4 4 4 2 3 2 1 2 8 8 6 5 4 4 6 3 3 5 6 8 7 8 7 8 8 9 8 10 8 9 9 10 12 8 13 9 7 7 6 6 5 4 4
5 4 4 5 2 3 3 2 2 3 14 8 7 3 5 6 6 5 3 4 7 7 7 8 8 8 9 8 7 9 8 8 9 10 10 10 11 9 8 8 7 6 5 5 4
5 4 4 3 2 3 2 2 2 10 14 9 7 7 7 6 6 5 5 4 4 6 6 7 5 7 7 7 7 6 8 8 8 9 13 10 11 10 9 7 6 5 5 5 4
5 5 4 3 4 2 2 3 10 13 8 10 9 7 7 7 7 6 7 7 8 10 9 7 7 6 6 8 6 7 9 13 13 13 14 10 11 9 7 6 6 6 5 4 4
6 5 3 2 1 1 3 6 14 10 10 8 9 8 9 7 7 7 8 8 6 7 9 11 11 8 6 7 8 8 9 12 16 15 13 10 13 9 6 5 5 5 4 4 3
7 2 1 0 1 2 5 11 10 10 10 10 9 10 9 8 8 8 8 8 7 6 10 11 11 6 6 6 6 8 11 8 11 11 13 11 9 7 6 6 5 5 4 4 4
4 3 3 3 2 3 6 10 9 8 9 9 12 11 11 10 10 9 9 8 8 6 5 8 12 7 7 6 6 7 7 12 11 17 17 12 12 11 8 7 6 6 5 4 3
4 6 4 3 3 6 9 10 9 7 8 10 11 11 11 10 9 9 10 8 7 7 6 7 9 9 8 9 9 9 10 9 10 12 15 15 12 7 7 6 6 5 4 4 3
6 9 4 3 9 7 10 10 11 10 9 9 9 10 11 10 10 10 9 8 6 6 8 6 9 12 10 7 6 7 8 9 14 13 12 12 12 6 6 6 5 5 4 4 3
9 8 3 5 11 11 10 11 11 11 10 10 10 9 9 10 11 9 9 7 6 6 8 7 10 14 12 9 8 9 8 8 9 10 13 15 12 6 5 5 5 5 4 4 3
9 10 8 7 8 12 12 12 12 9 9 9 9 9 10 10 8 10 9 8 7 6 6 6 9 12 14 11 9 11 9 8 10 15 13 12 10 8 7 6 5 5 4 4 4
10 10 10 12 11 12 12 12 13 13 10 9 11 10 11 11 10 10 8 8 7 7 6 7 12 10 9 9 9 10 10 9 10 10 12 10 10 8 7 6 5 5 4 4 4
11 12 10 11 11 12 13 12 13 12 12 12 12 11 10 11 10 10 9 8 8 6 7 6 11 10 11 9 9 11 10 9 9 9 9 9 9 6 5 5 5 5 5 5 4
10 9 11 11 12 13 13 13 13 12 12 11 11 11 11 9 7 7 7 7 6 7 8 8 11 12 14 10 10 13 10 9 9 8 8 11 8 6 6 6 5 5 5 5 4